Погода в Золотово

Россия / Псковская область     56°44′13″N   28°19′26″E
темп.,
°C
ветер,
м/с
пор.,
м/с
влажн.,
%
обл.,
%
осадки,
мм/ч
давл.,
гПа
погр.,
м
15 мая, сб
сб1500:00+10вюв28965 0.1 1007157
03:00+9вюв2396100 0.1 100643
06:00+10вюв1195100 0.4 100520
09:00+13ююз1193100 1.7 1005325
12:00+13з239282 0.3 1006254
15:00+18з246468 0.3 1004917
18:00+18зсз346316 0.0 10041087
21:00+13зсз229385 0.9 100519
16 мая, вс
вс1600:00+11зсз25977 0.1 100596
03:00+10зсз269735 0.1 1007134
06:00+8зсз24925 0.0 100878
09:00+14з22745 0.0 1009342
12:00+20зюз12485 0.0 10101238
15:00+21ююз2344100 0.0 10092083
18:00+20ююз3459100 0.2 10091238
21:00+14ююв228955 1.0 101021
17 мая, пн
пн1700:00+12юв2396100 0.0 101065
03:00+11юв279634 0.0 1010126
06:00+11юв3129471 0.0 1009295
09:00+16юв4138199 0.0 1009581
12:00+19ююв51077100 1.2 10081134
15:00+16ююв51090100 5.5 1008565
18:00+14юв4995100 2.6 1008568
21:00+12ююв2699100 4.6 1006247
18 мая, вт
вт1800:00+11в229971 3.9 100557
03:00+11с119981 3.9 100419
06:00+11ссв2499100 0.0 1002169
09:00+13с2596100 2.7 1001394
12:00+12сз2599100 2.1 1001235
15:00+14с2497100 2.3 1000288
18:00+13ссз1499100 0.8 998212
21:00+13з3599100 2.1 997306
19 мая, ср
ср1900:00+13зюз269973 0.1 998210
03:00+10юз269946 0.2 999163
06:00+10юз3798100 0.0 1000443
09:00+11зюз3697100 0.2 1000393
12:00+12зюз3694100 0.4 1001587
15:00+11зюз4893100 0.9 1002576
18:00+11з51189100 0.1 1001693
21:00+10з51186100 0.1 1002855